Volver al catálogo

ATLAS 5 CENTAUR R/B

LostMEO
NORAD 39167·ROCKET BODY·🇺🇸 United States

Lanzado May 15, 2013 desde Cape Canaveral Space Force Station

Loading…

Próximos Pases (próximas 24 horas)

TLE

ObsoletoSource: Space-Track

Época: Aug 4, 2026, 22:18 UTC

1 39167U 13023B   26216.92930148 -.00000017  00000-0  00000-0 0  9997
2 39167  55.1685 286.1787 0165036  21.2708 339.4814  1.91733421 92518

Sigue ATLAS 5 CENTAUR R/B en tiempo real con AllMySat

Download on the App Store